Theta_e
283 283 284 283 284 284 284 284 285 285 285 286 287 288 287 286 286 285 285 284 284 282 282 281 280 281 280 280 281 280 280 281 279 278 280 281 280 279 279 279 279 279 279
283 283 283 283 283 283 283 284 284 284 284 285 286 286 286 285 284 284 283 283 282 281 281 280 280 280 279 280 280 279 279 280 280 277 279 279 279 278 277 277 277 278 277
282 282 282 282 283 283 283 283 283 283 283 284 284 285 285 284 283 283 283 282 281 281 280 280 279 280 279 279 279 279 279 279 279 278 276 278 278 277 275 276 275 275 275
281 282 282 282 283 283 283 283 282 283 282 282 283 284 284 283 282 282 282 281 281 280 280 280 280 280 279 279 279 278 278 277 276 276 275 275 274 275 274 272 271 272 270
281 281 281 282 282 283 282 282 282 282 282 282 281 281 282 282 282 281 281 280 280 279 280 280 280 280 280 280 278 276 276 275 275 274 273 272 272 271 269 269 267 268 269
280 280 281 281 281 281 281 281 281 281 281 281 280 280 281 282 285 284 281 280 280 279 279 279 280 280 281 280 280 279 277 274 273 272 271 269 268 268 268 266 265 264 263
280 280 280 281 281 280 281 280 280 280 280 279 279 280 280 282 285 284 282 280 279 278 278 277 277 277 277 277 279 278 276 276 273 270 268 267 267 267 266 263 263 261 261
279 280 280 280 280 280 279 279 278 279 278 278 278 279 280 283 285 284 281 277 275 275 275 274 274 273 273 272 270 268 268 269 269 268 267 267 267 266 265 263 259 258 259
278 278 278 279 278 278 277 275 276 276 276 276 277 279 281 284 285 282 277 274 272 271 272 273 273 274 276 274 267 264 263 262 265 266 266 266 265 265 265 260 256 256 255
273 275 275 277 277 275 275 274 274 275 275 277 277 280 282 282 282 280 275 272 271 271 272 274 277 274 275 271 266 263 259 258 258 257 258 259 259 259 260 257 257 254 254
271 272 273 274 274 274 273 274 275 276 277 278 280 281 280 279 279 279 277 272 271 271 271 273 276 276 274 272 268 263 259 257 257 255 256 256 256 256 256 256 255 254 253
270 272 273 272 274 274 274 275 277 277 277 277 276 276 277 277 279 278 276 275 275 271 271 272 273 274 272 270 266 265 262 257 255 254 254 253 253 253 254 254 253 253 254
270 272 273 273 274 276 276 276 275 276 275 275 274 274 274 276 277 278 277 276 274 270 270 272 271 270 268 266 265 261 256 254 253 252 251 252 251 252 251 252 253 253 253
268 270 272 272 273 274 275 275 275 274 273 272 271 269 269 271 272 273 273 273 274 271 270 265 266 264 262 258 256 256 255 253 252 251 251 251 251 251 251 252 251 252 251
267 268 269 270 270 270 270 271 271 271 272 270 270 270 268 267 268 270 267 265 264 264 260 260 259 258 256 255 254 253 253 252 251 251 250 250 250 251 251 252 251 251 251
267 267 268 269 270 271 271 272 276 276 276 275 274 272 272 274 275 273 272 271 270 265 259 257 256 255 254 254 252 252 252 251 250 250 250 249 249 249 249 250 251 250 250
266 267 268 269 270 270 270 270 270 275 277 277 277 276 276 275 274 273 272 270 267 261 256 256 255 254 253 252 251 251 250 250 248 249 249 249 249 248 248 248 249 250 250
266 267 268 269 269 270 270 271 272 271 271 272 276 274 274 273 271 270 267 261 255 255 254 252 251 251 251 250 250 249 248 248 247 247 247 247 246 247 246 247 249 248 249
264 263 263 264 264 265 265 264 267 266 265 263 261 263 269 269 267 264 261 254 252 251 251 250 250 249 249 248 247 246 245 245 245 245 245 246 246 246 246 247 248 248 248
263 263 263 263 263 263 263 262 261 260 260 259 257 256 256 255 252 252 252 252 251 250 250 248 248 247 246 245 245 244 244 245 246 246 246 246 247 246 246 246 247 247 248
261 261 262 262 261 261 261 260 259 259 257 256 255 257 258 252 251 250 250 249 249 248 247 247 246 245 244 243 243 243 243 244 245 245 245 246 246 245 247 247 247 247 248
260 259 260 259 259 259 258 258 258 257 257 258 258 259 258 251 250 249 248 247 245 245 244 244 245 244 244 243 243 243 243 243 245 245 245 245 246 246 246 246 247 248 249
258 258 257 257 257 257 256 256 256 255 254 253 251 250 250 249 248 247 246 244 243 243 241 241 242 242 242 241 242 242 242 244 246 245 244 245 245 246 247 247 248 248 250
257 257 256 256 256 255 255 254 254 253 252 251 250 249 249 248 247 246 243 242 241 241 240 240 240 241 242 242 243 242 242 243 244 244 243 243 244 246 247 247 250 251 252
256 256 255 255 254 253 253 252 252 251 250 250 249 248 247 246 246 244 242 240 238 239 241 240 239 240 241 241 242 243 244 246 246 246 246 245 245 246 247 248 250 251 253
254 254 254 253 253 253 252 251 250 250 249 248 248 247 246 246 245 242 240 238 238 239 240 240 241 241 242 243 244 246 248 253 253 253 252 249 248 249 252 253 255 257 257
Wind_Speed
6 6 7 7 8 8 8 8 8 7 9 9 10 10 10 9 8 8 7 9 8 7 6 7 6 6 4 4 4 3 3 1 3 2 2 3 3 4 4 5 4 4 4
5 6 7 7 8 8 8 8 8 9 8 9 9 9 9 9 9 9 8 8 9 8 8 8 8 6 6 5 4 5 5 4 2 4 2 2 3 4 5 5 5 5 6
5 6 6 7 8 9 9 8 8 8 7 8 9 10 9 9 10 9 9 8 7 8 8 9 9 9 8 6 6 6 5 4 5 3 3 2 2 3 6 4 5 6 7
5 6 7 7 8 7 7 8 8 8 8 8 8 8 9 9 8 8 9 9 8 8 7 7 8 8 9 9 7 7 6 5 5 4 3 2 2 3 4 6 6 7 10
4 5 5 5 6 7 8 8 7 8 7 7 8 7 8 8 7 10 9 11 11 10 9 9 8 9 12 9 7 7 6 5 4 4 3 2 2 4 6 6 7 10 10
4 4 4 4 5 6 6 7 7 8 8 8 8 9 9 6 17 18 13 11 11 11 11 10 10 12 15 17 17 15 11 6 6 3 3 3 4 5 6 7 8 8 7
4 4 4 5 5 5 6 7 7 8 8 8 8 8 8 8 20 20 20 11 11 11 12 11 9 8 10 10 16 18 18 19 14 7 5 4 4 6 7 8 8 8 9
4 4 4 5 5 6 6 6 6 6 7 8 8 9 9 7 20 22 21 12 11 10 10 10 11 10 9 11 11 12 12 11 10 6 6 4 5 6 6 5 5 8 9
4 4 5 6 6 6 6 6 5 7 7 6 7 10 11 11 22 22 19 12 12 11 9 9 9 9 15 16 11 10 9 8 9 11 9 9 10 11 10 5 5 7 5
5 3 3 5 7 6 6 7 4 6 8 8 9 7 13 14 20 22 19 11 13 9 8 10 17 13 16 14 9 7 7 4 5 6 5 7 9 8 11 6 4 5 6
4 5 6 6 8 8 6 7 8 10 10 11 12 11 13 14 14 21 22 11 11 10 8 7 8 19 18 17 14 9 6 4 6 4 4 4 4 5 5 5 4 4 5
5 8 7 6 6 7 11 9 10 12 13 12 13 12 10 11 17 19 21 21 18 12 11 8 10 17 16 16 12 14 12 8 4 4 4 4 5 5 7 7 8 7 8
6 7 7 8 8 8 11 11 10 11 11 10 10 11 10 8 10 24 24 24 23 13 9 16 19 17 17 14 15 13 9 5 4 4 4 3 4 6 8 8 7 8 11
6 6 6 8 9 8 6 7 8 9 9 10 11 10 8 8 8 8 10 12 19 13 17 10 14 14 14 11 8 8 5 4 4 3 4 5 5 5 6 5 6 9 9
4 4 6 7 8 8 7 6 7 5 8 11 10 10 12 9 8 15 13 9 9 13 11 7 6 6 6 5 4 4 4 4 4 4 4 6 6 7 7 7 7 8 7
3 4 4 5 6 7 8 9 16 17 21 22 22 15 10 20 23 21 20 20 20 16 5 5 6 5 5 4 3 3 3 4 4 4 4 5 6 7 9 9 7 8 10
3 3 4 5 6 8 8 10 12 16 26 26 25 24 21 20 22 21 20 19 15 9 6 6 6 5 4 3 2 2 2 3 4 4 5 6 6 7 8 9 9 9 11
4 6 3 4 6 6 9 10 10 12 13 13 22 21 24 23 21 20 19 13 8 9 6 6 5 4 3 2 2 2 3 4 4 5 6 6 6 6 9 9 10 10 12
5 5 5 5 5 7 8 8 9 11 11 11 10 15 14 20 18 15 13 7 7 7 5 5 4 3 2 0 1 2 3 4 5 6 5 6 6 6 9 9 10 14 14
7 9 8 6 6 8 8 10 10 10 11 10 9 7 5 6 5 6 6 6 6 5 4 4 2 1 0 1 2 3 4 5 5 5 6 7 7 6 9 10 10 12 13
5 6 9 6 7 8 8 9 9 9 9 9 7 6 11 7 7 6 6 5 5 4 3 2 1 1 1 2 3 3 4 6 6 6 6 7 7 8 8 9 11 11 12
6 6 6 7 7 8 9 9 9 9 9 9 8 10 16 6 6 6 5 4 2 2 1 0 1 2 3 3 3 4 5 6 7 6 7 7 8 8 8 10 11 12 13
7 7 7 7 8 11 10 8 8 8 8 8 7 6 6 6 5 4 4 2 1 0 0 1 2 4 3 4 4 5 6 7 7 6 7 8 8 9 9 11 12 13 14
7 8 9 8 7 8 9 8 8 10 8 7 6 6 6 5 4 4 2 0 1 1 2 2 3 5 5 5 5 5 6 8 7 7 8 8 10 11 10 11 13 16 16
8 8 8 8 8 8 9 8 7 7 6 6 6 5 4 4 3 2 1 1 2 3 4 4 3 6 8 10 10 10 10 14 11 10 7 10 12 15 13 12 14 15 18
9 9 8 7 7 7 7 7 7 6 6 5 5 4 4 3 2 1 1 2 3 3 5 4 5 8 9 8 10 12 13 15 13 14 11 9 10 11 11 14 20 15 19
Wind_Direction
183 173 170 176 171 163 175 177 178 163 169 174 179 175 173 170 168 171 169 158 159 152 153 155 146 142 132 122 113 99 84 73 113 115 87 102 119 67 31 5 4 357 344
183 173 181 164 165 169 176 174 164 175 171 171 170 173 168 166 160 161 161 156 155 155 153 144 146 135 125 119 109 100 87 55 114 124 106 100 91 67 11 351 352 346 335
177 176 170 171 172 182 179 169 167 160 166 162 165 172 169 163 157 152 149 145 146 150 154 149 149 142 131 125 118 109 96 81 70 101 107 67 82 43 343 342 345 339 329
181 178 171 173 175 175 161 160 164 164 159 164 170 165 156 148 143 141 141 133 129 128 127 129 137 139 135 131 117 110 106 97 86 90 91 79 24 348 341 344 328 335 321
176 174 173 159 160 156 154 156 151 161 162 153 140 135 139 144 147 140 139 133 132 124 120 119 117 117 119 118 117 110 107 98 93 85 79 43 19 354 352 337 320 321 313
167 160 148 156 154 155 147 150 150 148 142 141 146 144 141 138 155 146 136 130 125 121 115 109 114 114 112 108 105 97 91 86 76 91 67 42 360 348 337 329 322 329 328
137 146 150 151 149 147 141 142 145 146 141 141 135 136 135 140 152 146 137 127 125 124 123 119 106 93 95 99 90 82 75 73 71 71 83 42 343 346 333 321 325 312 288
119 131 138 137 133 136 135 133 123 133 135 135 131 128 131 145 147 138 121 107 102 100 105 109 111 102 106 106 100 85 77 71 61 61 55 30 10 344 347 345 323 299 285
62 120 135 130 129 127 119 116 107 117 113 111 124 131 135 133 135 130 110 102 98 95 99 102 115 120 122 116 104 100 87 65 40 42 40 31 21 3 6 350 350 336 317
8 41 91 114 116 104 112 108 85 94 104 112 113 118 121 121 130 131 118 118 112 112 105 108 106 99 97 94 92 103 94 54 41 22 21 23 23 6 17 25 346 322 315
20 63 70 78 98 108 93 101 109 110 112 115 112 103 104 110 127 131 123 116 121 118 111 111 106 106 107 93 88 86 96 88 38 42 26 18 11 0 352 345 318 293 280
31 70 73 76 94 101 108 112 112 115 115 109 108 101 99 109 124 124 120 118 121 111 106 95 101 102 95 91 78 79 77 73 50 35 21 11 356 349 333 321 304 281 255
40 68 77 82 84 107 121 117 117 121 119 116 111 108 105 106 117 122 118 118 114 100 110 108 95 86 81 79 79 80 68 56 44 39 11 347 323 310 307 310 298 285 277
44 50 79 91 89 87 98 114 123 126 122 118 116 111 102 97 98 100 102 113 106 96 94 99 108 100 92 88 68 61 58 49 39 19 348 324 314 322 318 314 308 322 308
47 51 68 75 82 83 71 84 98 76 123 128 123 123 127 115 119 120 116 106 103 109 99 97 102 92 88 80 75 66 52 36 28 4 342 330 326 327 325 326 306 313 291
73 64 77 95 94 97 105 107 106 114 118 116 116 115 114 124 125 121 122 125 125 121 86 105 96 90 86 81 64 46 35 15 6 340 325 322 325 325 319 315 307 302 302
84 85 98 99 107 114 113 114 119 114 117 118 120 119 119 119 114 116 114 109 106 98 103 101 100 95 92 83 61 34 355 345 325 325 325 321 320 313 312 312 311 307 300
70 59 72 95 108 117 117 121 125 117 114 112 109 110 109 107 105 104 105 93 76 67 88 101 104 102 94 80 27 354 328 329 328 323 312 308 303 306 314 309 304 301 300
84 76 67 65 66 84 87 82 92 99 95 90 78 57 83 98 93 87 84 91 104 98 99 99 99 101 97 44 327 317 314 312 307 308 302 301 310 311 301 293 294 297 295
87 95 94 98 100 97 96 100 99 99 99 94 89 89 79 78 83 76 73 87 96 102 106 109 111 119 257 302 310 312 306 302 305 307 304 304 305 294 290 295 297 299 298
90 91 99 100 103 103 101 100 102 102 102 98 97 116 117 107 106 97 93 85 96 101 106 108 133 265 277 286 284 288 289 296 296 293 297 301 298 295 293 288 289 288 290
96 92 100 104 104 101 100 100 102 104 108 110 103 102 106 91 99 102 99 95 89 85 73 182 277 276 276 273 284 288 286 287 290 286 290 287 289 290 292 290 292 293 294
104 106 101 99 101 103 95 95 100 102 101 97 100 106 100 98 103 103 101 97 66 353 240 255 279 288 277 267 254 250 262 270 274 282 285 289 292 292 289 289 293 297 296
108 108 111 105 100 99 99 99 98 98 104 105 108 109 108 108 109 108 106 96 298 299 295 275 264 275 290 281 264 250 246 255 256 260 248 270 282 287 283 285 288 293 291
102 108 104 105 102 103 105 102 103 102 105 112 113 109 110 113 118 116 124 297 296 302 298 287 272 272 273 280 279 276 270 277 266 261 256 250 261 273 274 280 286 290 290
96 94 93 95 98 103 109 113 112 112 113 114 112 112 120 121 121 134 279 300 308 301 293 281 278 278 281 278 277 283 283 283 281 266 248 246 260 271 276 282 291 296 300